Regional Weather Roundup
Issued by NWS

Home | Current Version | Previous Version | Text Only | Print | Product List | Glossary On
Versions: 1 2 3 4 5 6 7 8 9 10 11 12 13 14 15 16 17 18 19 20 21 22 23 24 25 26 27 28 29 30 31 32 33 34 35 36 37 38 39 40 41 42 43 44 45 46 47 48 49 50
000
ASUS43 KDMX 181101
RWRIA

WEATHER ROUNDUP FOR IOWA
NATIONAL WEATHER SERVICE DES MOINES IA
600 AM CDT FRI AUG 18 2017

NOTE: "FAIR" INDICATES FEW OR NO CLOUDS BELOW 12,000 FEET WITH NO
SIGNIFICANT WEATHER AND/OR OBSTRUCTIONS TO VISIBILITY.

* - THESE STATIONS ARE NOT NWS STATIONS...THUS NOT UNDER NWS
QUALITY CONTROL.  THEY ALSO DO NOT REPORT WEATHER SUCH
AS PRECIPITATION OR FOG.

IAZ001>003-012>014-020>022-031>034-043>046-181200-
   NORTHWEST IOWA

CITY           SKY/WX    TMP DP  RH WIND       PRES   REMARKS
CARROLL *      MOCLDY    61  61 100 W6        29.88S
CHEROKEE *     PTCLDY    63  62  97 CALM      29.88R
DENISON *      CLOUDY    63  61  94 CALM      29.91R
LE MARS *      CLOUDY    64  63  94 NW7       29.89R
ORANGE CITY *  CLOUDY    66  63  88 N5        29.90R
SHELDON *      CLOUDY    61  61 100 N5        29.89R
SIOUX CITY     CLOUDY    63  63 100 CALM      29.86S
SPENCER        LGT RAIN  62  60  93 NW6       29.89R
STORM LAKE *   MOCLDY    63  61  94 SE5       29.89R
$$

IAZ055>058-069>071-079>083-090>094-181200-
   SOUTHWEST IOWA

CITY           SKY/WX    TMP DP  RH WIND       PRES   REMARKS
ATLANTIC *     CLOUDY    61  61 100 SW6       29.90F
AUDUBON *      CLOUDY    61  57  88 S3        29.90F
CLARINDA *       N/A     59  59 100 CALM      29.96R
COUNCIL BLFS * PTCLDY    66  64  94 S10       29.89F
CRESTON *      PTCLDY    61  59  94 W8        29.96R
HARLAN  *      CLOUDY    61  61 100 SE5       29.92S
LAMONI         PTCLDY    61  59  93 W6        29.93R
RED OAK *      CLOUDY    61  61 100 MISG      29.92F
SHENANDOAH *   CLOUDY    61  61 100 CALM      29.93S
$$

IAZ047>049-059>061-072>074-084-181200-
   CENTRAL IOWA

CITY           SKY/WX    TMP DP  RH WIND       PRES   REMARKS
AMES           CLOUDY    57  57 100 SE5       29.90F FOG
ANKENY *       CLOUDY    59  57  94 CALM      29.93F
BOONE *        CLOUDY    59  57  94 SE5       29.89F FOG
CHARITON *     CLEAR     61  59  94 NW6       29.93R
DES MOINES     CLOUDY    64  60  87 NE3       29.90S
GRINNELL*      PTCLDY    58  57  97 W5        29.94R FOG
KNOXVILLE *    CLEAR     59  57  94 W5        29.93R
MARSHALLTOWN   PTCLDY    59  59 100 W5        29.92R
NEWTON *       PTCLDY    61  59  94 CALM      29.93R
PELLA *        CLEAR     61  60  97 CALM      29.95R
PERRY *          N/A     58  58  98 SE3       29.91F
$$

IAZ004>006-015-016-023>025-035-036-181200-
   NORTH CENTRAL IOWA

CITY           SKY/WX    TMP DP  RH WIND       PRES   REMARKS
ALGONA *       CLOUDY    61  61 100 NE8       29.88F
CLARION *      CLOUDY    57  57 100 NE7       29.89F
ESTHERVILLE    CLOUDY    59  59 100 E3        29.88F
FORT DODGE *   CLOUDY    57  55  94 E3        29.89F
MASON CITY     CLOUDY    60  59  96 W5        29.92R
FOREST CITY *  CLOUDY    59  59 100 CALM      29.91S
WEBSTER CITY * CLOUDY    57  57 100 SE5       29.88F
IOWA FALLS *     N/A     60  59  96 CALM      29.92F
$$

IAZ007>011-017>019-026>030-037>042-050>054-066-181200-
   NORTHEAST IOWA

CITY           SKY/WX    TMP DP  RH WIND       PRES   REMARKS
CEDAR RAPIDS   CLEAR     57  57 100 NW7       29.89R
CHARLES CITY * CLOUDY    57  57 100 W3        29.90R
CLINTON *      CLEAR     59  59 100 W7        29.86S
DECORAH *      PTCLDY    59  57  94 VRB3      29.86R
DUBUQUE        CLEAR     60  58  92 NW7       29.86S
MONTICELLO *   CLEAR     57  57 100 W5        29.87R
OELWEIN *        N/A     59  57  94 NW7       29.91R
WATERLOO       CLOUDY    59  58  96 W3        29.90R
$$

IAZ064-065-067-068-078-181200-
   EAST CENTRAL IOWA

CITY           SKY/WX    TMP DP  RH WIND       PRES   REMARKS
DAVENPORT      CLEAR     60  59  96 W6        29.88S
IOWA CITY      CLEAR     61  59  93 CALM      29.90R
MUSCATINE *    CLEAR     63  59  88 W7        29.89R
QUAD CITIES    CLEAR     63  60  90 SW5       29.86S
$$

IAZ062-063-075>077-085>089-095>099-181200-
   SOUTHEAST IOWA

CITY           SKY/WX    TMP DP  RH WIND       PRES   REMARKS
BURLINGTON     CLEAR     60  60 100 CALM      29.89S
FAIRFIELD *    PTCLDY    59  57  94 W6        29.90R
FORT MADISON * CLEAR     61  61 100 SW3       29.91R
KEOKUK *       PTCLDY    63  59  88 SW3       29.89S
OSKALOOSA *      N/A     57  56  97 W3        29.92R
OTTUMWA        CLEAR     61  59  93 W7        29.91R
WASHINGTON *   CLEAR     59  59 100 W6        29.91R
$$

ABBREVIATIONS USED IN REMARKS
   TC - TEMPERATURES IN CELSIUS
  WCI - WIND CHILL INDEX
   HX - HEAT INDEX
  VSB - VISIBILITY
$$





USA.gov is the U.S. government's official web portal to all federal, state and local government web resources and services.